OVO1020 ZSPD-ZSAM

Flight info

Callsign OVO1020
Flight time 1h 23m
Altitude 25600
Route NXD W131 AKDIM A470 ENVEN
Aircraft A320/H-SDE2E3GHIJ1J3J4J5LM1ORWXYZ/LB1D1

Departure

Time 2026-05-05 14:36
Airport Shanghai Pudong International Airport (ZSPD)

Arrival

Time 2026-05-05 16:00
Airport Xiamen Gaoqi International Airport (ZSAM)
Time Latitude Longitude Altitude Speed Heading
2026-05-05 13:54 31.13796 121.80142 29 ft 0 kts 72°
2026-05-05 14:23 31.13795 121.80142 29 ft 1 kts 72°
2026-05-05 14:23 31.13787 121.80115 12 ft 4 kts 65°
2026-05-05 14:24 31.13774 121.80087 7 ft 4 kts 54°
2026-05-05 14:24 31.13757 121.80065 27 ft 4 kts 32°
2026-05-05 14:24 31.13735 121.80056 28 ft 2 kts 343°
2026-05-05 14:24 31.13734 121.80057 28 ft 4 kts 342°
2026-05-05 14:27 31.13740 121.80055 29 ft 4 kts 343°
2026-05-05 14:28 31.13793 121.80038 29 ft 12 kts 342°
2026-05-05 14:28 31.13888 121.80001 29 ft 16 kts 342°
2026-05-05 14:28 31.13996 121.79959 29 ft 16 kts 341°
2026-05-05 14:28 31.14058 121.79935 29 ft 0 kts 340°
2026-05-05 14:29 31.14067 121.79930 29 ft 6 kts 333°
2026-05-05 14:29 31.14079 121.79855 28 ft 15 kts 254°
2026-05-05 14:29 31.14046 121.79714 29 ft 18 kts 257°
2026-05-05 14:30 31.14064 121.79597 29 ft 15 kts 338°
2026-05-05 14:30 31.14170 121.79556 29 ft 17 kts 342°
2026-05-05 14:30 31.14293 121.79509 29 ft 20 kts 342°
2026-05-05 14:30 31.14428 121.79458 29 ft 21 kts 342°
2026-05-05 14:31 31.14570 121.79404 29 ft 22 kts 342°
2026-05-05 14:31 31.14696 121.79356 30 ft 18 kts 342°
2026-05-05 14:31 31.14821 121.79309 30 ft 20 kts 342°
2026-05-05 14:31 31.14943 121.79263 30 ft 21 kts 342°
2026-05-05 14:32 31.15085 121.79209 29 ft 21 kts 342°
2026-05-05 14:32 31.15227 121.79155 28 ft 23 kts 342°
2026-05-05 14:32 31.15371 121.79101 29 ft 22 kts 342°
2026-05-05 14:32 31.15502 121.79052 28 ft 15 kts 342°
2026-05-05 14:33 31.15607 121.79012 29 ft 17 kts 342°
2026-05-05 14:33 31.15731 121.78966 28 ft 18 kts 342°
2026-05-05 14:33 31.15824 121.78931 29 ft 11 kts 342°
2026-05-05 14:33 31.15890 121.78907 29 ft 1 kts 342°
2026-05-05 14:34 31.15897 121.78904 29 ft 6 kts 342°
2026-05-05 14:34 31.15957 121.78840 29 ft 17 kts 281°
2026-05-05 14:35 31.15914 121.78710 28 ft 18 kts 217°
2026-05-05 14:35 31.15813 121.78715 29 ft 0 kts 162°
2026-05-05 14:35 31.15813 121.78716 29 ft 1 kts 162°
2026-05-05 14:36 31.15625 121.78786 28 ft 67 kts 162°
2026-05-05 14:36 31.14951 121.79042 31 ft 135 kts 162°
2026-05-05 14:36 31.13891 121.79438 271 ft 174 kts 162°
2026-05-05 14:36 31.12661 121.79887 817 ft 195 kts 163°
2026-05-05 14:37 31.11341 121.80367 1618 ft 207 kts 166°
2026-05-05 14:37 31.09918 121.80843 2328 ft 220 kts 166°
2026-05-05 14:37 31.08389 121.81350 2909 ft 237 kts 165°
2026-05-05 14:37 31.06778 121.81892 3694 ft 246 kts 164°
2026-05-05 14:38 31.05100 121.82457 4409 ft 257 kts 164°
2026-05-05 14:38 31.03362 121.83040 5158 ft 263 kts 165°
2026-05-05 14:38 31.01537 121.83299 5670 ft 267 kts 185°
2026-05-05 14:38 30.99799 121.82574 5875 ft 268 kts 215°
2026-05-05 14:39 30.98605 121.80933 5899 ft 270 kts 244°
2026-05-05 14:39 30.97968 121.78865 5898 ft 272 kts 253°
2026-05-05 14:39 30.97420 121.76748 5899 ft 272 kts 252°
2026-05-05 14:39 30.96900 121.74782 5900 ft 272 kts 252°
2026-05-05 14:40 30.96380 121.72652 5899 ft 273 kts 258°
2026-05-05 14:40 30.96385 121.70444 5980 ft 273 kts 279°
2026-05-05 14:40 30.96780 121.68279 6379 ft 275 kts 282°
2026-05-05 14:40 30.97200 121.66103 7138 ft 277 kts 282°
2026-05-05 14:41 30.97615 121.63902 8147 ft 278 kts 281°
2026-05-05 14:41 30.98029 121.61688 9125 ft 281 kts 281°
2026-05-05 14:41 30.98445 121.59447 10066 ft 285 kts 281°
2026-05-05 14:41 30.98873 121.57128 10632 ft 303 kts 281°
2026-05-05 14:42 30.99329 121.54646 11034 ft 324 kts 281°
2026-05-05 14:42 30.99816 121.51997 11440 ft 343 kts 282°
2026-05-05 14:42 31.00322 121.49247 12199 ft 348 kts 282°
2026-05-05 14:42 31.00833 121.46471 13019 ft 353 kts 282°
2026-05-05 14:43 31.01351 121.43664 13824 ft 357 kts 282°
2026-05-05 14:43 31.01877 121.40804 14468 ft 363 kts 282°
2026-05-05 14:43 31.02409 121.37910 15148 ft 368 kts 282°
2026-05-05 14:43 31.02946 121.34982 15845 ft 372 kts 282°
2026-05-05 14:44 31.03482 121.32055 16600 ft 375 kts 282°
2026-05-05 14:44 31.04028 121.29076 17394 ft 377 kts 282°
2026-05-05 14:44 31.04575 121.26082 18173 ft 380 kts 282°
2026-05-05 14:44 31.05111 121.23142 18824 ft 383 kts 283°
2026-05-05 14:45 31.05676 121.20044 19486 ft 387 kts 283°
2026-05-05 14:45 31.06238 121.16955 20134 ft 391 kts 283°
2026-05-05 14:45 31.06690 121.13811 20789 ft 396 kts 275°
2026-05-05 14:45 31.06522 121.10635 21466 ft 402 kts 260°
2026-05-05 14:46 31.05810 121.07408 22160 ft 408 kts 256°
2026-05-05 14:46 31.05019 121.04264 22817 ft 412 kts 255°
2026-05-05 14:46 31.04205 121.01044 23487 ft 416 kts 256°
2026-05-05 14:46 31.03388 120.97790 24055 ft 420 kts 256°
2026-05-05 14:47 31.02566 120.94502 24593 ft 425 kts 256°
2026-05-05 14:47 31.01737 120.91174 25081 ft 430 kts 256°
2026-05-05 14:47 31.00899 120.87809 25485 ft 433 kts 256°
2026-05-05 14:47 31.00331 120.85529 25578 ft 433 kts 256°
2026-05-05 14:48 30.99218 120.81059 25600 ft 451 kts 256°
2026-05-05 14:48 30.98333 120.77506 25598 ft 460 kts 256°
2026-05-05 14:48 30.97740 120.75133 25600 ft 461 kts 256°
2026-05-05 14:48 30.96843 120.71549 25601 ft 461 kts 256°
2026-05-05 14:49 30.95946 120.67971 25602 ft 460 kts 256°
2026-05-05 14:49 30.95049 120.64393 25602 ft 460 kts 256°
2026-05-05 14:49 30.94153 120.60819 25596 ft 460 kts 256°
2026-05-05 14:49 30.93256 120.57249 25596 ft 460 kts 256°
2026-05-05 14:50 30.92356 120.53671 25596 ft 460 kts 256°
2026-05-05 14:50 30.91451 120.50091 25590 ft 460 kts 255°
2026-05-05 14:50 30.90348 120.46597 25589 ft 463 kts 247°
2026-05-05 14:50 30.88712 120.43355 25589 ft 466 kts 236°
2026-05-05 14:51 30.86529 120.40552 25591 ft 470 kts 224°
2026-05-05 14:51 30.83995 120.38142 25589 ft 473 kts 220°
2026-05-05 14:51 30.81336 120.35880 25587 ft 475 kts 218°
2026-05-05 14:51 30.78611 120.33680 25587 ft 476 kts 217°
2026-05-05 14:52 30.75882 120.31511 25585 ft 476 kts 217°
2026-05-05 14:52 30.73142 120.29327 25588 ft 476 kts 217°
2026-05-05 14:52 30.70425 120.27141 25585 ft 476 kts 217°
2026-05-05 14:52 30.67710 120.24938 25585 ft 476 kts 218°
2026-05-05 14:53 30.65008 120.22731 25582 ft 475 kts 217°
2026-05-05 14:53 30.62301 120.20514 25585 ft 474 kts 217°
2026-05-05 14:53 30.59599 120.18299 25585 ft 474 kts 217°
2026-05-05 14:53 30.56906 120.16092 25582 ft 474 kts 217°
2026-05-05 14:54 30.54215 120.13889 25586 ft 474 kts 217°
2026-05-05 14:54 30.51517 120.11682 25585 ft 474 kts 217°
2026-05-05 14:54 30.48819 120.09479 25586 ft 476 kts 218°
2026-05-05 14:54 30.46112 120.07269 25582 ft 477 kts 217°
2026-05-05 14:55 30.43343 120.05137 25586 ft 478 kts 213°
2026-05-05 14:55 30.40495 120.03152 25584 ft 478 kts 213°
2026-05-05 14:55 30.37627 120.01205 25588 ft 478 kts 212°
2026-05-05 14:55 30.34757 119.99287 25587 ft 478 kts 212°
2026-05-05 14:56 30.31869 119.97371 25585 ft 478 kts 212°
2026-05-05 14:56 30.28982 119.95459 25590 ft 478 kts 212°
2026-05-05 14:56 30.26098 119.93548 25590 ft 478 kts 212°
2026-05-05 14:56 30.23215 119.91638 25591 ft 478 kts 212°
2026-05-05 14:57 30.20333 119.89725 25594 ft 478 kts 212°
2026-05-05 14:57 30.17455 119.87816 25595 ft 478 kts 212°
2026-05-05 14:57 30.14570 119.85902 25594 ft 478 kts 212°
2026-05-05 14:57 30.11693 119.83994 25594 ft 478 kts 212°
2026-05-05 14:58 30.08805 119.82081 25597 ft 478 kts 212°
2026-05-05 14:58 30.05920 119.80172 25595 ft 480 kts 212°
2026-05-05 14:58 30.03028 119.78255 25597 ft 480 kts 212°
2026-05-05 14:58 30.00135 119.76316 25602 ft 479 kts 212°
2026-05-05 14:59 29.97277 119.74390 25602 ft 479 kts 213°
2026-05-05 14:59 29.94391 119.72443 25608 ft 479 kts 213°
2026-05-05 14:59 29.91506 119.70497 25604 ft 479 kts 213°
2026-05-05 14:59 29.88605 119.68604 25600 ft 480 kts 209°
2026-05-05 15:00 29.85503 119.67155 25609 ft 484 kts 199°
2026-05-05 15:00 29.83324 119.66571 25604 ft 486 kts 191°
2026-05-05 15:00 29.78876 119.66025 25607 ft 486 kts 186°
2026-05-05 15:00 29.75461 119.65803 25618 ft 486 kts 184°
2026-05-05 15:01 29.72126 119.65635 25619 ft 486 kts 184°
2026-05-05 15:01 29.68708 119.65443 25619 ft 485 kts 185°
2026-05-05 15:01 29.65381 119.65236 25618 ft 485 kts 185°
2026-05-05 15:01 29.61963 119.65011 25619 ft 485 kts 185°
2026-05-05 15:02 29.58591 119.64849 25616 ft 486 kts 184°
2026-05-05 15:02 29.55263 119.64767 25619 ft 485 kts 183°
2026-05-05 15:02 29.51886 119.64687 25619 ft 484 kts 184°
2026-05-05 15:02 29.48522 119.64531 25626 ft 484 kts 185°
2026-05-05 15:03 29.45169 119.64328 25626 ft 484 kts 185°
2026-05-05 15:03 29.41802 119.64107 25625 ft 484 kts 185°
2026-05-05 15:03 29.38445 119.63883 25627 ft 484 kts 185°
2026-05-05 15:03 29.35090 119.63662 25624 ft 484 kts 185°
2026-05-05 15:04 29.31737 119.63447 25623 ft 483 kts 185°
2026-05-05 15:04 29.28385 119.63237 25630 ft 482 kts 185°
2026-05-05 15:04 29.25020 119.63030 25627 ft 482 kts 185°
2026-05-05 15:04 29.21667 119.62825 25630 ft 482 kts 185°
2026-05-05 15:05 29.14971 119.62418 25629 ft 482 kts 185°
2026-05-05 15:05 29.11626 119.62215 25631 ft 482 kts 185°
2026-05-05 15:05 29.08274 119.62012 25625 ft 482 kts 186°
2026-05-05 15:06 29.04928 119.61816 25627 ft 480 kts 186°
2026-05-05 15:06 29.01596 119.61611 25629 ft 479 kts 186°
2026-05-05 15:06 28.98278 119.61401 25640 ft 479 kts 186°
2026-05-05 15:06 28.94943 119.61188 25643 ft 479 kts 186°
2026-05-05 15:07 28.91609 119.60975 25643 ft 479 kts 186°
2026-05-05 15:07 28.88282 119.60766 25649 ft 479 kts 186°
2026-05-05 15:07 28.84954 119.60558 25647 ft 479 kts 186°
2026-05-05 15:07 28.81629 119.60354 25644 ft 478 kts 186°
2026-05-05 15:08 28.78311 119.60149 25655 ft 477 kts 186°
2026-05-05 15:08 28.74996 119.59944 25659 ft 476 kts 186°
2026-05-05 15:08 28.71691 119.59739 25662 ft 476 kts 186°
2026-05-05 15:08 28.68380 119.59533 25654 ft 476 kts 186°
2026-05-05 15:09 28.65071 119.59328 25659 ft 476 kts 186°
2026-05-05 15:09 28.61765 119.59123 25654 ft 476 kts 186°
2026-05-05 15:09 28.58446 119.58917 25658 ft 476 kts 186°
2026-05-05 15:09 28.55149 119.58714 25668 ft 474 kts 187°
2026-05-05 15:10 28.51860 119.58513 25667 ft 472 kts 187°
2026-05-05 15:10 28.48585 119.58312 25679 ft 471 kts 187°
2026-05-05 15:10 28.45357 119.58114 25678 ft 471 kts 187°
2026-05-05 15:10 28.42087 119.57919 25676 ft 471 kts 187°
2026-05-05 15:11 28.38811 119.57736 25676 ft 471 kts 186°
2026-05-05 15:11 28.35545 119.57559 25682 ft 471 kts 186°
2026-05-05 15:11 28.32270 119.57383 25670 ft 471 kts 187°
2026-05-05 15:11 28.29004 119.57207 25678 ft 470 kts 187°
2026-05-05 15:12 28.25735 119.57029 25686 ft 469 kts 187°
2026-05-05 15:12 28.22488 119.56851 25686 ft 469 kts 187°
2026-05-05 15:12 28.19219 119.56670 25686 ft 468 kts 187°
2026-05-05 15:12 28.15964 119.56491 25691 ft 468 kts 187°
2026-05-05 15:13 28.12712 119.56311 25692 ft 468 kts 187°
2026-05-05 15:13 28.09455 119.56132 25691 ft 469 kts 187°
2026-05-05 15:13 28.06193 119.56012 25686 ft 469 kts 186°
2026-05-05 15:13 28.02929 119.55961 25695 ft 468 kts 185°
2026-05-05 15:14 27.99675 119.55936 25702 ft 468 kts 185°
2026-05-05 15:14 27.96424 119.55915 25703 ft 468 kts 185°
2026-05-05 15:14 27.93169 119.55887 25703 ft 468 kts 185°
2026-05-05 15:14 27.89913 119.55853 25704 ft 468 kts 185°
2026-05-05 15:15 27.86662 119.55831 25707 ft 468 kts 185°
2026-05-05 15:15 27.83405 119.55818 25707 ft 468 kts 185°
2026-05-05 15:15 27.80149 119.55807 25708 ft 468 kts 185°
2026-05-05 15:15 27.76895 119.55795 25710 ft 468 kts 185°
2026-05-05 15:16 27.73634 119.55781 25712 ft 468 kts 185°
2026-05-05 15:16 27.70382 119.55765 25709 ft 468 kts 185°
2026-05-05 15:16 27.67121 119.55746 25712 ft 468 kts 185°
2026-05-05 15:16 27.63865 119.55727 25709 ft 468 kts 185°
2026-05-05 15:17 27.60604 119.55707 25711 ft 468 kts 185°
2026-05-05 15:17 27.57353 119.55689 25711 ft 468 kts 185°
2026-05-05 15:17 27.54099 119.55671 25709 ft 468 kts 185°
2026-05-05 15:17 27.50855 119.55653 25716 ft 467 kts 185°
2026-05-05 15:18 27.47592 119.55633 25716 ft 467 kts 185°
2026-05-05 15:18 27.44354 119.55616 25713 ft 467 kts 185°
2026-05-05 15:18 27.41097 119.55601 25712 ft 467 kts 185°
2026-05-05 15:18 27.37863 119.55593 25714 ft 467 kts 185°
2026-05-05 15:19 27.34602 119.55589 25715 ft 467 kts 185°
2026-05-05 15:19 27.31357 119.55586 25716 ft 467 kts 185°
2026-05-05 15:19 27.28115 119.55584 25705 ft 467 kts 185°
2026-05-05 15:19 27.24859 119.55584 25716 ft 466 kts 185°
2026-05-05 15:20 27.21619 119.55576 25715 ft 465 kts 186°
2026-05-05 15:20 27.18386 119.55561 25716 ft 465 kts 186°
2026-05-05 15:20 27.15150 119.55538 25715 ft 465 kts 186°
2026-05-05 15:20 27.11918 119.55512 25712 ft 465 kts 186°
2026-05-05 15:21 27.08681 119.55486 25716 ft 465 kts 186°
2026-05-05 15:21 27.05445 119.55460 25717 ft 465 kts 186°
2026-05-05 15:21 27.02204 119.55437 25700 ft 465 kts 186°
2026-05-05 15:21 26.99025 119.55415 25709 ft 463 kts 186°
2026-05-05 15:22 26.95799 119.55389 25714 ft 463 kts 186°
2026-05-05 15:22 26.92582 119.55367 25703 ft 463 kts 186°
2026-05-05 15:22 26.89358 119.55348 25712 ft 463 kts 186°
2026-05-05 15:22 26.86146 119.55329 25714 ft 463 kts 186°
2026-05-05 15:23 26.82919 119.55309 25711 ft 463 kts 186°
2026-05-05 15:23 26.79699 119.55288 25703 ft 463 kts 186°
2026-05-05 15:23 26.76479 119.55266 25686 ft 463 kts 187°
2026-05-05 15:23 26.73261 119.55246 25704 ft 462 kts 187°
2026-05-05 15:24 26.70052 119.55227 25710 ft 461 kts 187°
2026-05-05 15:24 26.66854 119.55207 25707 ft 460 kts 187°
2026-05-05 15:24 26.63648 119.55186 25708 ft 460 kts 187°
2026-05-05 15:24 26.60444 119.55165 25702 ft 460 kts 187°
2026-05-05 15:25 26.57241 119.55141 25707 ft 461 kts 187°
2026-05-05 15:25 26.54031 119.55118 25708 ft 461 kts 187°
2026-05-05 15:25 26.50829 119.55099 25704 ft 461 kts 187°
2026-05-05 15:25 26.47625 119.55081 25693 ft 460 kts 187°
2026-05-05 15:26 26.44426 119.55062 25707 ft 458 kts 187°
2026-05-05 15:26 26.41245 119.55043 25705 ft 457 kts 187°
2026-05-05 15:26 26.38067 119.55029 25701 ft 457 kts 187°
2026-05-05 15:26 26.34876 119.55007 25702 ft 458 kts 188°
2026-05-05 15:27 26.31693 119.54970 25701 ft 458 kts 188°
2026-05-05 15:27 26.28511 119.54926 25693 ft 457 kts 188°
2026-05-05 15:27 26.25328 119.54878 25693 ft 457 kts 188°
2026-05-05 15:27 26.22195 119.54581 25683 ft 448 kts 196°
2026-05-05 15:28 26.19173 119.53827 25712 ft 443 kts 201°
2026-05-05 15:28 26.16198 119.52915 25698 ft 444 kts 202°
2026-05-05 15:28 26.13232 119.51929 25689 ft 444 kts 204°
2026-05-05 15:28 26.10288 119.50910 25687 ft 444 kts 204°
2026-05-05 15:29 26.07334 119.49878 25686 ft 444 kts 204°
2026-05-05 15:29 26.04385 119.48850 25691 ft 445 kts 204°
2026-05-05 15:29 26.01432 119.47831 25678 ft 444 kts 204°
2026-05-05 15:29 25.98473 119.46815 25641 ft 445 kts 204°
2026-05-05 15:30 25.95508 119.45802 25685 ft 446 kts 204°
2026-05-05 15:30 25.92541 119.44792 25685 ft 447 kts 204°
2026-05-05 15:30 25.89567 119.43783 25686 ft 447 kts 204°
2026-05-05 15:30 25.86598 119.42775 25685 ft 447 kts 204°
2026-05-05 15:31 25.83625 119.41767 25675 ft 447 kts 204°
2026-05-05 15:31 25.80694 119.40774 25691 ft 447 kts 204°
2026-05-05 15:31 25.77735 119.39733 25672 ft 444 kts 206°
2026-05-05 15:31 25.74951 119.38335 25683 ft 436 kts 215°
2026-05-05 15:32 25.72476 119.36438 25673 ft 429 kts 225°
2026-05-05 15:32 25.70334 119.34161 25687 ft 426 kts 230°
2026-05-05 15:32 25.68288 119.31785 25683 ft 426 kts 231°
2026-05-05 15:32 25.66256 119.29398 25683 ft 426 kts 231°
2026-05-05 15:33 25.64220 119.27006 25682 ft 426 kts 231°
2026-05-05 15:33 25.62188 119.24620 25701 ft 426 kts 231°
2026-05-05 15:33 25.60153 119.22226 25692 ft 428 kts 232°
2026-05-05 15:33 25.58107 119.19819 25683 ft 429 kts 231°
2026-05-05 15:34 25.56062 119.17423 25678 ft 429 kts 231°
2026-05-05 15:34 25.54007 119.15020 25681 ft 430 kts 231°
2026-05-05 15:34 25.52617 119.13394 25678 ft 430 kts 231°
2026-05-05 15:34 25.50569 119.11003 25441 ft 427 kts 231°
2026-05-05 15:35 25.48521 119.08608 25204 ft 429 kts 231°
2026-05-05 15:35 25.46478 119.06217 24969 ft 428 kts 231°
2026-05-05 15:35 25.43772 119.03054 24672 ft 427 kts 231°
2026-05-05 15:35 25.42396 119.01446 24536 ft 426 kts 231°
2026-05-05 15:36 25.40354 118.99061 24303 ft 425 kts 231°
2026-05-05 15:36 25.38324 118.96692 24077 ft 424 kts 231°
2026-05-05 15:36 25.36325 118.94361 23875 ft 424 kts 232°
2026-05-05 15:36 25.34381 118.92096 23660 ft 425 kts 232°
2026-05-05 15:37 25.32341 118.89696 23383 ft 424 kts 232°
2026-05-05 15:37 25.30363 118.87287 22993 ft 421 kts 233°
2026-05-05 15:37 25.28430 118.84927 22383 ft 415 kts 232°
2026-05-05 15:37 25.26502 118.82584 21716 ft 410 kts 232°
2026-05-05 15:38 25.24592 118.80266 21034 ft 405 kts 232°
2026-05-05 15:38 25.22703 118.77977 20367 ft 401 kts 231°
2026-05-05 15:38 25.20829 118.75710 19689 ft 398 kts 231°
2026-05-05 15:38 25.18947 118.73431 19004 ft 394 kts 230°
2026-05-05 15:39 25.17128 118.71233 18317 ft 391 kts 230°
2026-05-05 15:39 25.15303 118.69037 17551 ft 387 kts 230°
2026-05-05 15:39 25.13500 118.66866 16899 ft 381 kts 230°
2026-05-05 15:39 25.11714 118.64712 16142 ft 380 kts 230°
2026-05-05 15:40 25.09935 118.62571 15415 ft 378 kts 230°
2026-05-05 15:40 25.08183 118.60478 14695 ft 376 kts 229°
2026-05-05 15:40 25.06390 118.58416 14012 ft 373 kts 228°
2026-05-05 15:40 25.04618 118.56396 13300 ft 369 kts 228°
2026-05-05 15:41 25.02820 118.54343 12593 ft 364 kts 228°
2026-05-05 15:41 25.01075 118.52345 11992 ft 358 kts 229°
2026-05-05 15:41 24.99414 118.50442 11850 ft 340 kts 229°
2026-05-05 15:41 24.97813 118.48609 11737 ft 322 kts 229°
2026-05-05 15:42 24.96309 118.46886 11648 ft 304 kts 229°
2026-05-05 15:42 24.94982 118.45365 11567 ft 289 kts 230°
2026-05-05 15:42 24.93677 118.43871 11467 ft 276 kts 230°
2026-05-05 15:42 24.92382 118.42389 11371 ft 263 kts 230°
2026-05-05 15:43 24.91143 118.40965 11247 ft 251 kts 230°
2026-05-05 15:43 24.89964 118.39615 11121 ft 239 kts 230°
2026-05-05 15:43 24.88838 118.38324 10982 ft 229 kts 230°
2026-05-05 15:43 24.87750 118.37077 10869 ft 221 kts 230°
2026-05-05 15:44 24.86701 118.35886 10736 ft 213 kts 230°
2026-05-05 15:44 24.85682 118.34718 10480 ft 212 kts 231°
2026-05-05 15:44 24.84666 118.33548 10236 ft 210 kts 231°
2026-05-05 15:44 24.83659 118.32391 9984 ft 210 kts 231°
2026-05-05 15:45 24.82641 118.31225 9727 ft 211 kts 231°
2026-05-05 15:45 24.81616 118.30060 9595 ft 214 kts 231°
2026-05-05 15:45 24.80579 118.28871 9426 ft 216 kts 231°
2026-05-05 15:45 24.79538 118.27681 9300 ft 216 kts 230°
2026-05-05 15:46 24.78505 118.26487 9149 ft 215 kts 231°
2026-05-05 15:46 24.77469 118.25300 9031 ft 216 kts 230°
2026-05-05 15:46 24.76420 118.24113 8867 ft 216 kts 230°
2026-05-05 15:46 24.75376 118.22930 8664 ft 216 kts 230°
2026-05-05 15:47 24.74332 118.21747 8515 ft 216 kts 230°
2026-05-05 15:47 24.73624 118.20944 8397 ft 216 kts 230°
2026-05-05 15:47 24.72237 118.19368 8220 ft 216 kts 230°
2026-05-05 15:47 24.71193 118.18180 8045 ft 216 kts 229°
2026-05-05 15:48 24.70142 118.16986 7891 ft 217 kts 229°
2026-05-05 15:48 24.69091 118.15791 7741 ft 217 kts 229°
2026-05-05 15:48 24.68143 118.14714 7608 ft 217 kts 229°
2026-05-05 15:48 24.67086 118.13513 7449 ft 218 kts 229°
2026-05-05 15:49 24.66030 118.12315 7292 ft 218 kts 229°
2026-05-05 15:49 24.64981 118.11124 7140 ft 218 kts 229°
2026-05-05 15:49 24.63924 118.09923 6976 ft 218 kts 229°
2026-05-05 15:49 24.62870 118.08726 6886 ft 218 kts 229°
2026-05-05 15:50 24.61815 118.07530 6822 ft 218 kts 229°
2026-05-05 15:50 24.60762 118.06335 6672 ft 218 kts 229°
2026-05-05 15:50 24.59706 118.05137 6394 ft 218 kts 229°
2026-05-05 15:50 24.58644 118.03933 6205 ft 219 kts 228°
2026-05-05 15:51 24.57582 118.02729 6046 ft 219 kts 228°
2026-05-05 15:51 24.56520 118.01526 5919 ft 221 kts 228°
2026-05-05 15:51 24.55462 118.00298 6007 ft 221 kts 230°
2026-05-05 15:51 24.54459 117.99068 6068 ft 212 kts 231°
2026-05-05 15:52 24.53466 117.97843 6003 ft 210 kts 230°
2026-05-05 15:52 24.52527 117.96692 5865 ft 197 kts 230°
2026-05-05 15:52 24.51629 117.95595 5696 ft 192 kts 230°
2026-05-05 15:52 24.50730 117.94498 5501 ft 193 kts 230°
2026-05-05 15:53 24.49838 117.93410 5314 ft 194 kts 229°
2026-05-05 15:53 24.48934 117.92310 5100 ft 195 kts 229°
2026-05-05 15:53 24.48011 117.91187 4753 ft 195 kts 229°
2026-05-05 15:53 24.47025 117.90203 4402 ft 195 kts 213°
2026-05-05 15:54 24.45732 117.89826 4029 ft 196 kts 177°
2026-05-05 15:54 24.44463 117.90347 3703 ft 193 kts 145°
2026-05-05 15:54 24.43401 117.91222 3405 ft 191 kts 140°
2026-05-05 15:54 24.42389 117.92133 3104 ft 188 kts 137°
2026-05-05 15:55 24.41641 117.93280 2989 ft 182 kts 109°
2026-05-05 15:55 24.41597 117.94632 2975 ft 184 kts 75°
2026-05-05 15:55 24.42242 117.95837 2977 ft 184 kts 51°
2026-05-05 15:55 24.43074 117.96903 2974 ft 184 kts 51°
2026-05-05 15:56 24.43871 117.97994 2975 ft 184 kts 53°
2026-05-05 15:56 24.44639 117.99082 2858 ft 174 kts 53°
2026-05-05 15:56 24.45358 118.00109 2643 ft 167 kts 52°
2026-05-05 15:56 24.46066 118.01097 2404 ft 162 kts 52°
2026-05-05 15:57 24.46755 118.02056 2186 ft 157 kts 52°
2026-05-05 15:57 24.47419 118.02985 1978 ft 153 kts 52°
2026-05-05 15:57 24.48069 118.03895 1774 ft 148 kts 51°
2026-05-05 15:57 24.48687 118.04759 1590 ft 140 kts 51°
2026-05-05 15:58 24.49274 118.05579 1408 ft 135 kts 51°
2026-05-05 15:58 24.49852 118.06387 1242 ft 135 kts 51°
2026-05-05 15:58 24.50423 118.07185 1059 ft 132 kts 51°
2026-05-05 15:58 24.50989 118.07976 890 ft 130 kts 52°
2026-05-05 15:59 24.51548 118.08758 719 ft 131 kts 53°
2026-05-05 15:59 24.52110 118.09545 563 ft 131 kts 53°
2026-05-05 15:59 24.52674 118.10334 381 ft 133 kts 54°
2026-05-05 15:59 24.53248 118.11138 219 ft 133 kts 54°
2026-05-05 16:00 24.53828 118.11929 84 ft 131 kts 53°
2026-05-05 16:00 24.54300 118.12617 55 ft 79 kts 53°
2026-05-05 16:00 24.54474 118.12879 51 ft 22 kts 65°
2026-05-05 16:00 24.54521 118.13035 53 ft 21 kts 78°
2026-05-05 16:01 24.54521 118.13126 54 ft 0 kts 123°
2026-05-05 16:01 24.54506 118.13137 50 ft 10 kts 156°
2026-05-05 16:01 24.54428 118.13078 51 ft 15 kts 233°
2026-05-05 16:01 24.54357 118.12977 51 ft 18 kts 232°
2026-05-05 16:02 24.54285 118.12874 52 ft 16 kts 232°
2026-05-05 16:02 24.54216 118.12776 53 ft 16 kts 232°
2026-05-05 16:02 24.54145 118.12678 53 ft 17 kts 231°
2026-05-05 16:02 24.54064 118.12567 54 ft 18 kts 231°
2026-05-05 16:03 24.53996 118.12472 57 ft 16 kts 231°
2026-05-05 16:03 24.53920 118.12367 56 ft 16 kts 231°
2026-05-05 16:03 24.53871 118.12298 60 ft 0 kts 231°
2026-05-05 16:04 24.53851 118.12271 56 ft 12 kts 231°
2026-05-05 16:04 24.53791 118.12189 57 ft 15 kts 231°
2026-05-05 16:04 24.53735 118.12111 57 ft 14 kts 231°
2026-05-05 16:04 24.53706 118.12071 58 ft 0 kts 231°
2026-05-05 16:06 24.53695 118.12056 61 ft 12 kts 231°
2026-05-05 16:06 24.53608 118.12011 61 ft 10 kts 168°
2026-05-05 16:06 24.53556 118.11978 60 ft 10 kts 224°
2026-05-05 16:06 24.53506 118.11916 59 ft 12 kts 231°
2026-05-05 16:07 24.53447 118.11870 62 ft 9 kts 192°
2026-05-05 16:07 24.53417 118.11868 68 ft 0 kts 181°
2026-05-05 16:08 24.53402 118.11868 61 ft 7 kts 181°
2026-05-05 16:09 24.53391 118.11867 62 ft 0 kts 181°
2026-05-05 16:09 24.53385 118.11867 62 ft 7 kts 181°
2026-05-05 16:09 24.53378 118.11867 62 ft 0 kts 181°